FREGAT R/B, 42710

Orbit data source: Space-Track

FREGAT R/B, 42710 is space debris in HEO originally from a launch on Thu, 18 May 2017 UTC launched from the French Guiana (FRGUI). Debris objects in space refer to the collection of defunct objects orbiting the Earth. Examples of debris include non-operational satellites, rocket bodies, and fragments generated from explosions, collisions, or faulty payload assembly.

Loading next visibility...
Identifier
42710, 2017-026B
Orbit
HEO
Last TLE update
2 days ago
Origin
Manufacturer
Lavochkin
Mission
Spacecraft
Bus & Motor
FREGAT, Unknown motor
Mass
1,000 kg wet, 1,000 kg dry
Launch date (UTC)
2017-05-18 (8 years ago)
Launch vehicle
Unknown
Launch site
French Guiana (FRGUI)
Object type
Payload
Rocket body
Debris
Shape & HBR
Irr, 3.48 m
Radar Cross Section
12.110 m², Large (>1 m²)

Expand to show TLE details & history

TLE from 2 days ago
0 FREGAT R/B
1 42710U 17026B   25180.62526807 -.00000084  00000-0  00000-0 0  9995
2 42710   6.2158  90.2380 6219725  92.8395 334.7251  2.45433926 72796
Epoch: 2025-06-29T15:00Z
TLE epoch observation values (Epoch: 2025-06-29T15:00:23.161Z)
Latitude
0.00001°
Longitude
-53.02312°
Altitude
8,361.354 km
Speed
6.076 km/s
True Right ascension
06h 00m 04s
True Declination
0° 00' 00"
Sunlit
Object was in daylight at epoch
Visualization orbit readout
Latitude
-4.7101°
Longitude
175.48195°
Altitude
19,096.57 km
Speed
3.758 km/s
Apparent Right ascension
21h 28m 56s
Apparent Declination
-16° 33' 17"
Sunlit
Object is in daylight
Visualization observer readout
Local Sidereal Time
20:10:35
Azimuth
158.068° S
Elevation
30.652°
Doppler factor
1
Orbital elements
Apogee altitude
31,283.149 km
Perigee altitude
2,399.448 km
Semi-major axis
23,219.436 km
Eccentricity
0.62197
Inclination
6.2158°
RAAN
90.238°
Arg. of periapsis
92.8395°
True anomaly
Unknown
Mean anomaly
334.7251°
Eccentric anomaly
Unknown
Mean motion
0.61343 °/min
Orbital period
586.86 mins
BSTAR
0
Loading maneuver chart data...
Loading SW <> Apogee altitude chart data...
Loading historical data...
Loading historical data...
Loading historical data...
Loading historical data...
Loading historical data...
Loading historical data...
Loading historical data...
Other satellites on launch #26 in the year 2017 (2017-05-18 UTC)

FREGAT R/B Visibility forecast

Observer location: undefined°, undefined°

Span
Click to sort rows by Start time (UTC) header in descending order
Start Az.
Max El. time (UTC)
Max El. Az.
Max El.
End time (UTC)
End Az.
444 mins2025-07-01 08:32:27.224Z158.08° S2025-07-01 13:12:27.224Z168.562° S29.904°2025-07-01 15:56:27.224Z127.387° SE
13 mins2025-07-02 02:28:27.224Z191.684° SSW2025-07-02 02:33:27.224Z167.621° S13.223°2025-07-02 02:41:27.224Z141.135° SSE
|